Hayward, WI

4:53 PM CDT on May 25, 2018 (GMT -0500)
Sawyer County

Weather History for KHYR - August, 2013

Change the Weather History Date:

Saturday, August 31, 2013

  Actual Average Record
Temperature  
Mean Temperature 66 °F -  
Max Temperature 82 °F 83 °F 88 °F (2008)
Min Temperature 50 °F 63 °F 39 °F (1998)
Cooling Degree Days 1    
Growing Degree Days 16 (Base 50)    
Moisture  
Dew Point 59 °F    
Average Humidity 85    
Maximum Humidity 100    
Minimum Humidity 54    
Precipitation  
Precipitation 0.43 in - - ()
Sea Level Pressure  
Sea Level Pressure 29.87 in    
Wind  
Wind Speed 1 mph (SSW)    
Max Wind Speed 9 mph    
Max Gust Speed 29 mph    
Visibility 7 miles    
Events Rain , Thunderstorm    
Averages and records for this station are not official NWS values.
T = Trace of Precipitation, MM = Missing Value Source: NWS Daily Summary

Daily Weather History Graph

Daily Weather History Graph

Search for Another Location

Airport or City:

Astronomy

Aug. 31, 2013 Rise Set
Actual Time 6:25 AM CDT 7:45 PM CDT
Civil Twilight 5:54 AM CDT 8:16 PM CDT
Nautical Twilight 5:17 AM CDT 8:53 PM CDT
Astronomical Twilight 4:37 AM CDT 9:33 PM CDT
Moon 1:45 AM CDT (8/31) 4:52 PM CDT (8/31)
Length of Visible Light 14h 21m
Length of Day
13h 19m
Waning Crescent, 21% of the Moon is Illuminated
Aug 31
Waning Crescent
Sep 5
New
Sep 12
First Quarter
Sep 19
Full
Sep 26
Last Quarter

Hourly Weather History & Observations

Time (CDT) Temp. Heat Index Dew Point Humidity Pressure Visibility Wind Dir Wind Speed Gust Speed Precip Events Conditions
12:53 AM 59.0 °F - 57.9 °F 96% 29.93 in 10.0 mi Calm Calm - N/A   Clear
1:53 AM 59.0 °F - 57.9 °F 96% 29.93 in 5.0 mi Calm Calm - N/A   Clear
2:53 AM 54.0 °F - 52.0 °F 93% 29.92 in 5.0 mi Calm Calm - N/A   Clear
3:01 AM 53.6 °F - 53.6 °F 100% 29.92 in 2.5 mi Calm Calm - N/A   Scattered Clouds
3:05 AM 53.6 °F - 53.6 °F 100% 29.92 in 1.0 mi Calm Calm - N/A   Mist
3:12 AM 55.4 °F - 53.6 °F 94% 29.92 in 0.8 mi Calm Calm - N/A   Mist
3:16 AM 55.4 °F - 53.6 °F 94% 29.92 in 1.2 mi Calm Calm - N/A   Scattered Clouds
3:19 AM 53.6 °F - 53.6 °F 100% 29.92 in 3.0 mi Calm Calm - N/A   Scattered Clouds
3:53 AM 53.1 °F - 52.0 °F 96% 29.91 in 8.0 mi Calm Calm - N/A   Clear
4:53 AM 53.1 °F - 52.0 °F 96% 29.91 in 7.0 mi Calm Calm - N/A   Clear
5:49 AM 51.8 °F - 51.8 °F 100% 29.92 in 8.0 mi Calm Calm - N/A   Partly Cloudy
5:53 AM 52.0 °F - 51.1 °F 97% 29.92 in 7.0 mi Calm Calm - N/A   Clear
6:11 AM 50.0 °F - 48.2 °F 94% 29.92 in 9.0 mi Calm Calm - N/A   Scattered Clouds
6:22 AM 51.8 °F - 50.0 °F 94% 29.92 in 8.0 mi Calm Calm - N/A   Mostly Cloudy
6:39 AM 50.0 °F - 48.2 °F 94% 29.91 in 2.5 mi Calm Calm - N/A   Mostly Cloudy
6:43 AM 51.8 °F - 48.2 °F 88% 29.91 in 6.0 mi Calm Calm - N/A   Scattered Clouds
6:53 AM 55.0 °F - 54.0 °F 96% 29.91 in 9.0 mi Calm Calm - N/A   Partly Cloudy
7:53 AM 64.0 °F - 60.1 °F 87% 29.90 in 10.0 mi South 4.6 mph - N/A   Clear
8:53 AM 66.9 °F - 61.0 °F 81% 29.91 in 10.0 mi Calm Calm - N/A   Clear
9:53 AM 70.0 °F - 61.0 °F 73% 29.90 in 10.0 mi Variable 3.5 mph - N/A   Clear
10:53 AM 73.9 °F - 63.0 °F 68% 29.88 in 10.0 mi WSW 3.5 mph - N/A   Clear
11:53 AM 75.9 °F - 63.0 °F 64% 29.87 in 10.0 mi Calm Calm - N/A   Clear
12:53 PM 77.0 °F - 63.0 °F 62% 29.85 in 10.0 mi Variable 5.8 mph - N/A   Clear
1:53 PM 79.0 °F - 64.0 °F 60% 29.84 in 10.0 mi SSW 9.2 mph - N/A   Clear
2:53 PM 82.0 °F 83.8 °F 64.9 °F 56% 29.82 in 10.0 mi South 9.2 mph - N/A   Clear
3:53 PM 82.0 °F 83.8 °F 64.9 °F 56% 29.81 in 10.0 mi South 6.9 mph - N/A   Clear
4:53 PM 82.0 °F 83.4 °F 64.0 °F 54% 29.79 in 10.0 mi SSW 8.1 mph - N/A   Clear
5:53 PM 82.0 °F 83.4 °F 64.0 °F 54% 29.75 in 10.0 mi SSW 4.6 mph - N/A   Clear
6:53 PM 78.1 °F - 64.0 °F 62% 29.80 in 10.0 mi Calm Calm - N/A   Clear
7:53 PM 72.0 °F - 66.0 °F 81% 29.81 in 10.0 mi Calm Calm - N/A   Clear
8:53 PM 72.0 °F - 64.9 °F 78% 29.80 in 10.0 mi SSW 3.5 mph - N/A   Clear
9:19 PM 73.4 °F - 64.4 °F 73% 29.82 in 10.0 mi Variable 6.9 mph - N/A Thunderstorm Mostly Cloudy
9:37 PM 66.2 °F - 64.4 °F 94% 29.87 in 1.5 mi Variable 6.9 mph 28.8 mph 0.25 in Rain , Thunderstorm Heavy Thunderstorms and Rain
9:40 PM 64.4 °F - 64.4 °F 100% 29.86 in 1.0 mi Variable 4.6 mph 21.9 mph 0.34 in Rain , Thunderstorm Heavy Thunderstorms and Rain
9:50 PM 64.4 °F - 64.4 °F 100% 29.84 in 2.0 mi Variable 4.6 mph - 0.42 in Rain , Thunderstorm Thunderstorms and Rain
9:53 PM 64.9 °F - 64.0 °F 97% 29.83 in 5.0 mi NE 4.6 mph - 0.42 in Rain , Thunderstorm Light Thunderstorms and Rain
10:14 PM 66.2 °F - 64.4 °F 94% 29.79 in 10.0 mi Calm Calm - 0.01 in Rain Light Rain
10:53 PM 64.9 °F - 64.0 °F 97% 29.75 in 10.0 mi SW 5.8 mph - 0.01 in   Clear
11:53 PM 64.9 °F - 63.0 °F 93% 29.73 in 10.0 mi Calm Calm - N/A   Partly Cloudy